Change the Weather History Date:

Monday, May 5, 2014

  Actual Average (KMSN) Record (KMSN)
Temperature  
Mean Temperature 51 °F 54 °F  
Max Temperature 60 °F 65 °F 90 °F (1949)
Min Temperature 42 °F 43 °F 29 °F (1958)
Degree Days  
Heating Degree Days 14 11  
Month to date heating degree days 60  
Since 1 July heating degree days 7067  
Cooling Degree Days 0 0  
Month to date cooling degree days 0  
Year to date cooling degree days 4  
Growing Degree Days 1 (Base 50)    
Moisture  
Dew Point 31 °F    
Average Humidity 47    
Maximum Humidity 66    
Minimum Humidity 28    
Precipitation  
Precipitation 0.00 in 0.11 in 1.41 in (1982)
Month to date precipitation 0.54  
Year to date precipitation 8.82  
Snow  
Snow 0.00 in 0.00 in T in (1989)
Month to date snowfall 0.1  
Since 1 July snowfall 50.8  
Snow Depth -    
Sea Level Pressure  
Sea Level Pressure 30.01 in    
Wind  
Wind Speed 11 mph (East)    
Max Wind Speed 18 mph    
Max Gust Speed 23 mph    
Visibility 10 miles    
Events      
T = Trace of Precipitation, MM = Missing Value Source: NWS Daily Summary

Daily Weather History Graph

Daily Weather History Graph

Search for Another Location

Airport or City:

Trip Planner

Search our weather history database for the weather conditions in past years. The results will help you decide how hot, cold, wet, or windy it might be!

Date:

Astronomy

May. 05, 2014 Rise Set
Actual Time 5:46 AM CDT 8:04 PM CDT
Civil Twilight 5:14 AM CDT 8:35 PM CDT
Nautical Twilight 4:35 AM CDT 9:14 PM CDT
Astronomical Twilight 3:52 AM CDT 9:58 PM CDT
Moon 11:06 AM CDT (5/5) 12:47 AM CDT (5/5)
Length of Visible Light 15h 20m
Length of Day
14h 17m
Waxing Crescent, 37% of the Moon is Illuminated
May 5
Waxing Crescent
May 6
First Quarter
May 14
Full
May 21
Last Quarter
May 28
New

Hourly Weather History & Observations

Time (CDT) Temp. Windchill Dew Point Humidity Pressure Visibility Wind Dir Wind Speed Gust Speed Precip Events Conditions
12:10 AM 47.7 °F - 28.8 °F 48% 30.02 in 10.0 mi ESE 12.7 mph - N/A   Clear
12:30 AM 47.3 °F - 28.9 °F 49% 30.02 in 10.0 mi ESE 10.4 mph - N/A   Scattered Clouds
12:50 AM 46.9 °F - 29.1 °F 50% 30.04 in 10.0 mi SE 11.5 mph - N/A   Scattered Clouds
1:15 AM 46.8 °F - 28.2 °F 49% 30.04 in 10.0 mi SE 11.5 mph - N/A   Scattered Clouds
1:30 AM 46.4 °F 41.5 °F 28.8 °F 50% 30.05 in 10.0 mi SE 10.4 mph - N/A   Clear
1:50 AM 45.9 °F 40.8 °F 29.1 °F 52% 30.02 in 10.0 mi ESE 10.4 mph - N/A   Clear
2:10 AM 45.9 °F 41.2 °F 30.0 °F 54% 30.01 in 10.0 mi ESE 9.2 mph - N/A   Scattered Clouds
2:30 AM 45.9 °F 41.7 °F 28.9 °F 52% 30.00 in 10.0 mi East 8.1 mph - N/A   Scattered Clouds
2:50 AM 45.9 °F 41.7 °F 29.3 °F 52% 29.99 in 10.0 mi East 8.1 mph - N/A   Mostly Cloudy
3:10 AM 45.5 °F 41.3 °F 29.5 °F 54% 29.99 in 10.0 mi East 8.1 mph - N/A   Mostly Cloudy
3:30 AM 45.0 °F 39.7 °F 30.0 °F 56% 30.00 in 10.0 mi East 10.4 mph - N/A   Scattered Clouds
3:50 AM 44.6 °F 42.2 °F 30.4 °F 57% 30.01 in 10.0 mi SE 4.6 mph - N/A   Clear
4:10 AM 43.7 °F 42.1 °F 31.1 °F 61% 30.03 in 10.0 mi East 3.5 mph - N/A   Clear
4:30 AM 42.8 °F 39.3 °F 31.8 °F 65% 30.03 in 10.0 mi NE 5.8 mph - N/A   Clear
5:10 AM 43.7 °F 38.6 °F 32.0 °F 63% 30.00 in 10.0 mi East 9.2 mph - N/A   Mostly Cloudy
5:30 AM 43.9 °F 40.5 °F 32.0 °F 63% 30.02 in 10.0 mi ENE 5.8 mph - N/A   Scattered Clouds
5:50 AM 43.9 °F 40.5 °F 32.5 °F 64% 30.04 in 10.0 mi NE 5.8 mph - N/A   Overcast
6:10 AM 43.7 °F 39.7 °F 33.1 °F 66% 30.05 in 10.0 mi NE 6.9 mph - N/A   Overcast
6:30 AM 43.9 °F 38.8 °F 32.9 °F 65% 30.03 in 10.0 mi ENE 9.2 mph - N/A   Overcast
6:50 AM 44.1 °F 37.7 °F 33.1 °F 65% 30.03 in 10.0 mi ENE 12.7 mph - N/A   Overcast
7:10 AM 44.8 °F 39.0 °F 33.3 °F 64% 30.04 in 10.0 mi ENE 11.5 mph - N/A   Overcast
7:30 AM 45.3 °F 39.7 °F 32.7 °F 61% 30.04 in 10.0 mi East 11.5 mph - N/A   Overcast
7:50 AM 45.9 °F 40.4 °F 31.8 °F 58% 30.05 in 10.0 mi East 11.5 mph 18.4 mph N/A   Overcast
8:10 AM 46.4 °F 40.7 °F 31.5 °F 56% 30.05 in 10.0 mi East 12.7 mph 17.3 mph N/A   Overcast
8:30 AM 47.3 °F - 31.1 °F 53% 30.05 in 10.0 mi East 11.5 mph - N/A   Overcast
8:50 AM 48.2 °F - 30.4 °F 50% 30.05 in 10.0 mi East 12.7 mph 18.4 mph N/A   Overcast
9:10 AM 48.6 °F - 28.9 °F 47% 30.05 in 10.0 mi East 15.0 mph 20.7 mph N/A   Overcast
9:30 AM 48.9 °F - 29.5 °F 47% 30.04 in 10.0 mi ESE 12.7 mph - N/A   Overcast
9:50 AM 49.5 °F - 30.6 °F 48% 30.04 in 10.0 mi East 12.7 mph 17.3 mph N/A   Overcast
10:10 AM 50.5 °F - 29.8 °F 45% 30.04 in 10.0 mi East 15.0 mph 21.9 mph N/A   Overcast
10:30 AM 52.3 °F - 30.4 °F 43% 30.04 in 10.0 mi East 16.1 mph 19.6 mph N/A   Overcast
10:50 AM 53.6 °F - 31.1 °F 42% 30.04 in 10.0 mi ENE 18.4 mph 23.0 mph N/A   Overcast
11:10 AM 54.5 °F - 31.3 °F 41% 30.04 in 10.0 mi East 11.5 mph 18.4 mph N/A   Overcast
11:30 AM 54.1 °F - 35.1 °F 49% 30.04 in 10.0 mi ENE 12.7 mph 21.9 mph N/A   Scattered Clouds
11:50 AM 54.3 °F - 34.3 °F 47% 30.03 in 10.0 mi East 15.0 mph 20.7 mph N/A   Clear
12:10 PM 54.5 °F - 33.8 °F 46% 30.03 in 10.0 mi East 13.8 mph 20.7 mph N/A   Clear
12:30 PM 55.4 °F - 34.2 °F 45% 30.02 in 10.0 mi ESE 16.1 mph 19.6 mph N/A   Clear
12:50 PM 55.6 °F - 33.6 °F 44% 30.01 in 10.0 mi East 13.8 mph 20.7 mph N/A   Clear
1:10 PM 55.0 °F - 33.1 °F 43% 30.01 in 10.0 mi East 11.5 mph 20.7 mph N/A   Clear
1:30 PM 56.5 °F - 33.3 °F 42% 30.01 in 10.0 mi East 11.5 mph - N/A   Clear
1:50 PM 56.5 °F - 32.7 °F 41% 30.00 in 10.0 mi East 13.8 mph 20.7 mph N/A   Clear
2:10 PM 57.9 °F - 32.9 °F 39% 30.00 in 10.0 mi East 11.5 mph 20.7 mph N/A   Clear
2:30 PM 59.0 °F - 31.3 °F 35% 29.99 in 10.0 mi ENE 13.8 mph 18.4 mph N/A   Clear
2:50 PM 59.0 °F - 29.1 °F 32% 29.97 in 10.0 mi East 12.7 mph 19.6 mph N/A   Clear
3:10 PM 60.3 °F - 30.7 °F 33% 29.97 in 10.0 mi East 12.7 mph 17.3 mph N/A   Clear
3:30 PM 59.2 °F - 28.9 °F 32% 29.97 in 10.0 mi ENE 11.5 mph - N/A   Clear
3:50 PM 59.9 °F - 29.8 °F 32% 29.97 in 10.0 mi ESE 11.5 mph 19.6 mph N/A   Clear
4:10 PM 59.9 °F - 29.3 °F 31% 29.96 in 10.0 mi ENE 11.5 mph 17.3 mph N/A   Clear
4:30 PM 59.7 °F - 31.1 °F 34% 29.95 in 10.0 mi ESE 11.5 mph 16.1 mph N/A   Clear
4:50 PM 60.1 °F - 30.9 °F 33% 29.95 in 10.0 mi ENE 10.4 mph - N/A   Clear
5:10 PM 60.3 °F - 31.1 °F 33% 29.95 in 10.0 mi ESE 12.7 mph 16.1 mph N/A   Clear
5:30 PM 59.7 °F - 26.2 °F 28% 29.96 in 10.0 mi East 9.2 mph 18.4 mph N/A   Clear
5:50 PM 59.4 °F - 26.8 °F 29% 29.96 in 10.0 mi ESE 12.7 mph - N/A   Clear
6:10 PM 58.1 °F - 26.8 °F 30% 29.97 in 10.0 mi ENE 10.4 mph - N/A   Clear
6:30 PM 58.3 °F - 26.6 °F 30% 29.97 in 10.0 mi ENE 11.5 mph - N/A   Clear
6:50 PM 57.6 °F - 26.6 °F 31% 29.98 in 10.0 mi ENE 10.4 mph - N/A   Clear
7:10 PM 56.5 °F - 27.5 °F 33% 29.99 in 10.0 mi East 5.8 mph - N/A   Clear
7:30 PM 55.6 °F - 28.9 °F 36% 29.99 in 10.0 mi East 6.9 mph - N/A   Clear
7:50 PM 54.5 °F - 29.3 °F 38% 29.99 in 10.0 mi East 6.9 mph - N/A   Clear
8:15 PM 53.4 °F - 29.1 °F 39% 29.99 in 10.0 mi East 8.1 mph - N/A   Clear
8:30 PM 53.1 °F - 29.3 °F 40% 30.00 in 10.0 mi East 8.1 mph - N/A   Clear
8:50 PM 51.6 °F - 31.6 °F 46% 30.00 in 10.0 mi East 9.2 mph - N/A   Clear
9:10 PM 50.7 °F - 32.4 °F 49% 30.00 in 10.0 mi East 8.1 mph - N/A   Clear
9:30 PM 50.7 °F - 29.8 °F 45% 30.00 in 10.0 mi East 8.1 mph - N/A   Clear
9:50 PM 50.0 °F - 29.8 °F 46% 30.00 in 10.0 mi East 8.1 mph - N/A   Clear
10:10 PM 49.1 °F - 30.9 °F 50% 30.01 in 10.0 mi East 8.1 mph - N/A   Clear
10:30 PM 47.5 °F - 32.4 °F 56% 30.01 in 10.0 mi East 6.9 mph - N/A   Clear
10:50 PM 46.8 °F - 33.3 °F 59% 30.01 in 10.0 mi East 9.2 mph - N/A   Clear
11:30 PM 45.7 °F 42.7 °F 34.0 °F 64% 30.02 in 10.0 mi East 5.8 mph - N/A   Clear
11:50 PM 44.8 °F 41.6 °F 34.2 °F 66% 30.02 in 10.0 mi East 5.8 mph - N/A   Clear